Location: Unspecified
(34.4500°N, 0.0000°E)
Time: 16:25:00
(UTC+00:00)

LightSail 2 - Visible Passes

Search period start: 25 January 2021 00:00
Search period end: 04 February 2021 00:00
Orbit: 685 x 712 km, 24.0° (Epoch: 25 January)

Date Brightness Start Highest point End Pass type
(mag) Time Alt. Az. Time Alt. Az. Time Alt. Az.
25 Jan 7.3 04:48:36 14° S 04:49:48 15° SSE 04:52:37 10° SE visible
25 Jan 7.0 06:30:23 10° SW 06:34:20 24° S 06:38:19 10° ESE visible
26 Jan 7.0 05:28:47 12° SW 05:31:57 21° S 05:35:44 10° ESE visible
27 Jan 7.2 04:30:12 18° SSE 04:30:12 18° SSE 04:33:00 10° SE visible
27 Jan 6.8 06:10:08 10° SW 06:14:08 24° S 06:18:10 10° SE visible
28 Jan 6.7 05:10:13 20° SSW 05:11:43 24° S 05:15:40 10° ESE visible
29 Jan 7.5 04:11:31 16° SE 04:11:31 16° SE 04:13:05 10° ESE visible
29 Jan 6.8 05:50:11 11° SW 05:53:54 24° S 05:57:52 10° SE visible
30 Jan 6.6 04:51:27 24° S 04:51:27 24° S 04:55:28 10° SE visible
30 Jan 7.1 06:32:34 10° SW 06:36:01 19° SSW 06:39:30 10° SSE visible
31 Jan 7.9 03:52:40 11° SE 03:52:40 11° SE 03:52:57 10° ESE visible
31 Jan 6.8 05:31:20 16° SW 05:33:35 22° S 05:37:22 10° SE visible
01 Feb 7.0 04:32:33 21° SSE 04:32:33 21° SSE 04:35:04 10° SE visible
01 Feb 7.2 06:12:49 10° SW 06:15:40 15° SSW 06:18:32 10° SSE visible
02 Feb 6.8 05:12:25 18° SSW 05:13:13 19° SSW 05:16:39 10° SSE visible
03 Feb 7.6 04:13:37 14° SSE 04:13:37 14° SSE 04:14:30 10° SE visible
03 Feb 7.3 05:53:38 10° SW 05:55:14 11° SSW 05:56:50 10° S visible
